Regional Weather Roundup
Issued by NWS

Home | Current Version | Previous Version | Graphics & Text | Print | Product List | Glossary On
Versions: 1 2 3 4 5 6 7 8 9 10 11 12 13 14 15 16 17 18 19 20 21 22 23 24 25 26 27 28 29 30 31 32 33 34 35 36 37 38 39 40 41 42 43 44 45 46 47 48 49 50
000
ASUS43 KBIS 170810
RWRND

NORTH DAKOTA REGIONAL WEATHER ROUNDUP
NATIONAL WEATHER SERVICE BISMARCK ND
200 AM CST TUE JAN 17 2017

NOTE: "FAIR" INDICATES FEW OR NO CLOUDS BELOW 12,000 FEET WITH NO
SIGNIFICANT WEATHER AND/OR OBSTRUCTIONS TO VISIBILITY.


NDZ001>003-009>011-017-170900-
NORTHWEST NORTH DAKOTA

CITY           SKY/WX    TMP DP  RH WIND       PRES   REMARKS
WILLISTON      FAIR       7   5  91 S6        29.96F WCI  -3
MINOT          FAIR      17  12  80 SW10      29.95F WCI   5
$$

NDZ018>021-031>035-040>046-170900-
SOUTHWEST NORTH DAKOTA

CITY           SKY/WX    TMP DP  RH WIND       PRES   REMARKS
BISMARCK       FAIR       7   3  84 W3        30.03F
DICKINSON      FAIR      16   8  71 SW5       29.95F WCI   9
GARRISON         N/A     10   7  87 CALM      29.99F
HETTINGER ARPT CLOUDY     6   1  80 W5        30.01F WCI  -3
$$

NDZ004>008-012>016-024-026-027-054-170900-
NORTHEAST NORTH DAKOTA

CITY           SKY/WX    TMP DP  RH WIND       PRES   REMARKS
GRAND FORKS    CLOUDY     3  -2  79 SW6       30.00R WCI  -8
GRND FRKS AFB  CLOUDY     7   4  86 W3        29.99F
DEVILS LAKE    FAIR       7   4  87 W9        29.97F WCI  -7
$$

NDZ022-023-025-028>030-036>039-047>053-170900-
SOUTHEAST NORTH DAKOTA

CITY           SKY/WX    TMP DP  RH WIND       PRES   REMARKS
FARGO          CLOUDY     2  -1  88 W8        30.02R WCI -12
JAMESTOWN      FAIR      10   7  87 W5        29.97F WCI   2
$$





USA.gov is the U.S. government's official web portal to all federal, state and local government web resources and services.